| time (UTC) | temp F | wind direction | speed knots | gust knots | rain 1hr in | rain 24hr in | rain mn in | humidity % | barometer mb |
| 20260906044558 | 65 | 0 | 0.0 | 1.7 | 0.00 | 0.01 | 0.00 | 78 | 1014.1 |
| 20260906044037 | 65 | 0 | 0.0 | 1.7 | 0.00 | 0.01 | 0.00 | 78 | 1014.0 |
| 20260906043538 | 66 | 0 | 0.0 | 1.7 | 0.00 | 0.01 | 0.00 | 77 | 1014.1 |
| 20260906043108 | 66 | 0 | 0.0 | 1.7 | 0.00 | 0.01 | 0.00 | 78 | 1014.2 |
| 20260906042535 | 66 | 0 | 0.0 | 1.7 | 0.00 | 0.01 | 0.00 | 77 | 1014.2 |
| 20260906042036 | 66 | 0 | 0.0 | 1.7 | 0.00 | 0.01 | 0.00 | 77 | 1014.2 |
| 20260906041555 | 66 | 0 | 0.0 | 0.9 | 0.00 | 0.01 | 0.00 | 78 | 1014.3 |
| 20260906041037 | 66 | 0 | 0.0 | 1.7 | 0.00 | 0.01 | 0.00 | 78 | 1014.2 |
| 20260906040538 | 66 | 0 | 0.0 | 1.7 | 0.00 | 0.01 | 0.00 | 78 | 1014.1 |
| 20260906040053 | 66 | 0 | 0.0 | 1.7 | 0.00 | 0.01 | 0.00 | 77 | 1014.2 |
| 20260906035539 | 66 | 360 | 0.0 | 1.7 | 0.00 | 0.01 | 0.01 | 76 | 1014.1 |
| 20260906035038 | 66 | 0 | 0.0 | 1.7 | 0.00 | 0.01 | 0.01 | 76 | 1014.1 |
| 20260906034559 | 67 | 24 | 0.0 | 1.7 | 0.00 | 0.01 | 0.01 | 75 | 1014.0 |
| 20260906034039 | 67 | 0 | 0.0 | 1.7 | 0.00 | 0.01 | 0.01 | 76 | 1014.0 |
| 20260906033536 | 67 | 0 | 0.0 | 0.0 | 0.00 | 0.01 | 0.01 | 75 | 1013.9 |
| 20260906033056 | 67 | 0 | 0.0 | 0.0 | 0.00 | 0.01 | 0.01 | 74 | 1014.0 |
| 20260906032536 | 67 | 0 | 0.0 | 0.0 | 0.00 | 0.01 | 0.01 | 74 | 1014.0 |
| 20260906032036 | 67 | 0 | 0.0 | 0.0 | 0.00 | 0.01 | 0.01 | 74 | 1014.0 |
| 20260906031556 | 67 | 0 | 0.0 | 0.0 | 0.00 | 0.01 | 0.01 | 74 | 1014.0 |
| 20260906031037 | 67 | 0 | 0.0 | 0.0 | 0.00 | 0.01 | 0.01 | 74 | 1014.0 |
| 20260906030540 | 67 | 0 | 0.0 | 0.0 | 0.00 | 0.01 | 0.01 | 75 | 1013.9 |
| 20260906030134 | 67 | 0 | 0.0 | 0.0 | 0.00 | 0.01 | 0.01 | 74 | 1013.9 |
| 20260906025537 | 67 | 0 | 0.0 | 0.0 | 0.00 | 0.01 | 0.01 | 74 | 1013.8 |
| 20260906025037 | 67 | 0 | 0.0 | 0.0 | 0.00 | 0.01 | 0.01 | 72 | 1013.8 |
| 20260906024603 | 68 | 0 | 0.0 | 0.0 | 0.00 | 0.01 | 0.01 | 72 | 1013.8 |
| 20260906024037 | 68 | 0 | 0.0 | 1.7 | 0.00 | 0.01 | 0.01 | 72 | 1013.7 |
| 20260906023541 | 68 | 0 | 0.0 | 1.7 | 0.00 | 0.01 | 0.01 | 71 | 1013.7 |
| 20260906023103 | 68 | 26 | 0.0 | 1.7 | 0.00 | 0.01 | 0.01 | 71 | 1013.6 |
| 20260906022536 | 68 | 0 | 0.0 | 1.7 | 0.00 | 0.01 | 0.01 | 72 | 1013.6 |
| 20260906022036 | 68 | 0 | 0.0 | 0.9 | 0.00 | 0.01 | 0.01 | 72 | 1013.6 |
| 20260906021610 | 68 | 0 | 0.0 | 0.0 | 0.00 | 0.01 | 0.01 | 71 | 1013.6 |
| 20260906021036 | 68 | 0 | 0.0 | 0.0 | 0.00 | 0.01 | 0.01 | 70 | 1013.5 |
| 20260906020537 | 68 | 0 | 0.0 | 0.0 | 0.00 | 0.01 | 0.01 | 70 | 1013.5 |
| 20260906020107 | 69 | 0 | 0.0 | 0.0 | 0.00 | 0.01 | 0.01 | 70 | 1013.5 |
| 20260906015536 | 69 | 0 | 0.0 | 0.0 | 0.00 | 0.01 | 0.01 | 71 | 1013.4 |
| 20260906015037 | 69 | 0 | 0.0 | 0.0 | 0.00 | 0.01 | 0.01 | 71 | 1013.4 |
| 20260906014604 | 69 | 0 | 0.0 | 0.0 | 0.00 | 0.01 | 0.01 | 70 | 1013.3 |
| 20260906014034 | 69 | 0 | 0.0 | 0.0 | 0.00 | 0.01 | 0.01 | 69 | 1013.1 |
| 20260906013533 | 69 | 0 | 0.0 | 0.0 | 0.00 | 0.01 | 0.01 | 69 | 1013.1 |
| 20260906013058 | 70 | 0 | 0.0 | 0.9 | 0.00 | 0.01 | 0.01 | 68 | 1013.1 |
| 20260906012538 | 70 | 0 | 0.0 | 0.9 | 0.00 | 0.01 | 0.01 | 67 | 1012.9 |
| 20260906012038 | 70 | 0 | 0.0 | 0.9 | 0.00 | 0.01 | 0.01 | 67 | 1012.9 |
| 20260906011601 | 70 | 0 | 0.0 | 0.0 | 0.00 | 0.01 | 0.01 | 68 | 1013.0 |
| 20260906011033 | 70 | 0 | 0.0 | 1.7 | 0.00 | 0.01 | 0.01 | 67 | 1012.9 |
| 20260906010536 | 71 | 0 | 0.0 | 1.7 | 0.00 | 0.01 | 0.01 | 67 | 1012.9 |
| 20260906010059 | 71 | 0 | 0.0 | 1.7 | 0.00 | 0.01 | 0.01 | 66 | 1012.8 |
| 20260906005538 | 71 | 0 | 0.0 | 1.7 | 0.00 | 0.01 | 0.01 | 66 | 1012.7 |
| 20260906005036 | 71 | 0 | 0.0 | 1.7 | 0.00 | 0.01 | 0.01 | 66 | 1012.7 |
| 20260906004603 | 72 | 0 | 0.0 | 1.7 | 0.00 | 0.01 | 0.01 | 65 | 1012.6 |
| 20260906004034 | 72 | 0 | 0.0 | 1.7 | 0.00 | 0.01 | 0.01 | 65 | 1012.5 |
| 20260906003537 | 72 | 0 | 0.0 | 1.7 | 0.00 | 0.01 | 0.01 | 64 | 1012.5 |
| 20260906003106 | 72 | 0 | 0.0 | 1.7 | 0.00 | 0.01 | 0.01 | 64 | 1012.6 |
| 20260906002536 | 73 | 0 | 0.0 | 1.7 | 0.00 | 0.01 | 0.01 | 64 | 1012.5 |
| 20260906002037 | 73 | 32 | 0.0 | 0.9 | 0.00 | 0.01 | 0.01 | 63 | 1012.3 |
| 20260906001557 | 73 | 0 | 0.0 | 1.7 | 0.00 | 0.01 | 0.01 | 63 | 1012.4 |
| 20260906001035 | 73 | 0 | 0.0 | 1.7 | 0.00 | 0.01 | 0.01 | 62 | 1012.3 |
| 20260906000540 | 74 | 0 | 0.0 | 1.7 | 0.00 | 0.01 | 0.01 | 61 | 1012.3 |
| 20260906000057 | 74 | 0 | 0.0 | 1.7 | 0.00 | 0.01 | 0.01 | 61 | 1012.1 |
| 20260905235537 | 74 | 0 | 0.0 | 1.7 | 0.00 | 0.01 | 0.01 | 60 | 1012.1 |
| 20260905235037 | 74 | 0 | 0.0 | 1.7 | 0.00 | 0.01 | 0.01 | 59 | 1012.2 |
| 20260905234614 | 74 | 62 | 0.0 | 1.7 | 0.00 | 0.01 | 0.01 | 60 | 1012.1 |
| 20260905234039 | 75 | 64 | 0.9 | 1.7 | 0.00 | 0.01 | 0.01 | 59 | 1012.1 |
| 20260905233536 | 75 | 0 | 0.0 | 1.7 | 0.00 | 0.01 | 0.01 | 58 | 1012.1 |
| 20260905233056 | 75 | 79 | 0.9 | 2.6 | 0.00 | 0.01 | 0.01 | 58 | 1012.1 |
| 20260905232538 | 75 | 71 | 0.9 | 4.3 | 0.00 | 0.01 | 0.01 | 57 | 1012.1 |
| 20260905232036 | 75 | 61 | 0.9 | 4.3 | 0.00 | 0.01 | 0.01 | 56 | 1012.0 |
| 20260905231558 | 76 | 66 | 0.9 | 4.3 | 0.00 | 0.01 | 0.01 | 57 | 1012.0 |
| 20260905231039 | 76 | 78 | 1.7 | 5.2 | 0.00 | 0.01 | 0.01 | 56 | 1011.9 |
| 20260905230537 | 76 | 79 | 0.9 | 5.2 | 0.00 | 0.01 | 0.01 | 56 | 1011.8 |
| 20260905230057 | 76 | 59 | 1.7 | 3.5 | 0.00 | 0.01 | 0.01 | 55 | 1011.8 |
| 20260905225536 | 77 | 59 | 0.9 | 3.5 | 0.00 | 0.01 | 0.01 | 55 | 1012.0 |
| 20260905225037 | 77 | 88 | 1.7 | 3.5 | 0.00 | 0.01 | 0.01 | 55 | 1011.9 |
| 20260905224609 | 77 | 53 | 0.9 | 4.3 | 0.00 | 0.01 | 0.01 | 54 | 1011.8 |
| 20260905224035 | 77 | 75 | 1.7 | 4.3 | 0.00 | 0.01 | 0.01 | 53 | 1011.6 |
| 20260905223536 | 78 | 74 | 0.9 | 4.3 | 0.00 | 0.01 | 0.01 | 53 | 1011.7 |
| 20260905223059 | 78 | 91 | 0.9 | 3.5 | 0.00 | 0.01 | 0.01 | 54 | 1011.8 |
| 20260905222537 | 78 | 360 | 0.0 | 3.5 | 0.00 | 0.01 | 0.01 | 54 | 1011.7 |
| 20260905222036 | 78 | 0 | 0.9 | 4.3 | 0.00 | 0.01 | 0.01 | 53 | 1011.7 |
| 20260905221555 | 78 | 41 | 1.7 | 4.3 | 0.00 | 0.01 | 0.01 | 54 | 1011.6 |
| 20260905221034 | 78 | 80 | 1.7 | 6.1 | 0.00 | 0.01 | 0.01 | 53 | 1011.5 |
| 20260905220540 | 79 | 126 | 1.7 | 6.1 | 0.00 | 0.01 | 0.01 | 53 | 1011.5 |
| 20260905220058 | 79 | 76 | 1.7 | 4.3 | 0.00 | 0.01 | 0.01 | 52 | 1011.5 |
| 20260905215537 | 79 | 64 | 1.7 | 4.3 | 0.00 | 0.01 | 0.01 | 52 | 1011.4 |
| 20260905215035 | 79 | 74 | 0.9 | 5.2 | 0.00 | 0.01 | 0.01 | 52 | 1011.5 |
| 20260905214611 | 79 | 117 | 0.9 | 7.0 | 0.00 | 0.01 | 0.01 | 52 | 1011.5 |
| 20260905214036 | 79 | 81 | 1.7 | 7.0 | 0.00 | 0.01 | 0.01 | 51 | 1011.5 |
| 20260905213538 | 79 | 86 | 2.6 | 7.0 | 0.00 | 0.01 | 0.01 | 50 | 1011.5 |
| 20260905213106 | 79 | 74 | 1.7 | 3.5 | 0.00 | 0.01 | 0.01 | 51 | 1011.4 |
| 20260905212537 | 79 | 40 | 1.7 | 6.1 | 0.00 | 0.01 | 0.01 | 50 | 1011.5 |
| 20260905212036 | 79 | 75 | 1.7 | 6.1 | 0.00 | 0.01 | 0.01 | 50 | 1011.3 |
| 20260905211603 | 79 | 35 | 2.6 | 7.8 | 0.00 | 0.01 | 0.01 | 50 | 1011.4 |
| 20260905211038 | 80 | 81 | 1.7 | 7.8 | 0.00 | 0.01 | 0.01 | 50 | 1011.5 |
| 20260905210537 | 80 | 82 | 1.7 | 7.0 | 0.00 | 0.01 | 0.01 | 50 | 1011.4 |
| 20260905210100 | 80 | 125 | 1.7 | 5.2 | 0.00 | 0.01 | 0.01 | 50 | 1011.4 |
| 20260905205537 | 80 | 108 | 1.7 | 7.0 | 0.00 | 0.01 | 0.01 | 50 | 1011.5 |
| 20260905205038 | 80 | 350 | 1.7 | 7.0 | 0.00 | 0.01 | 0.01 | 49 | 1011.5 |
| 20260905204558 | 80 | 83 | 1.7 | 6.1 | 0.00 | 0.01 | 0.01 | 48 | 1011.5 |
| 20260905204037 | 80 | 88 | 2.6 | 5.2 | 0.00 | 0.01 | 0.01 | 49 | 1011.5 |
| 20260905203540 | 80 | 74 | 1.7 | 5.2 | 0.00 | 0.01 | 0.01 | 49 | 1011.5 |
| 20260905203050 | 80 | 96 | 1.7 | 7.8 | 0.00 | 0.01 | 0.01 | 50 | 1011.6 |
| 20260905202537 | 80 | 95 | 2.6 | 7.8 | 0.00 | 0.01 | 0.01 | 51 | 1011.5 |
| 20260905202039 | 80 | 195 | 0.9 | 6.1 | 0.00 | 0.01 | 0.01 | 50 | 1011.5 |
| 20260905201603 | 80 | 76 | 1.7 | 7.0 | 0.00 | 0.01 | 0.01 | 50 | 1011.6 |
| 20260905201037 | 80 | 40 | 1.7 | 7.8 | 0.00 | 0.01 | 0.01 | 49 | 1011.7 |
| 20260905200536 | 80 | 62 | 1.7 | 7.8 | 0.00 | 0.01 | 0.01 | 49 | 1011.6 |
| 20260905200059 | 79 | 68 | 0.9 | 5.2 | 0.00 | 0.01 | 0.01 | 52 | 1011.5 |
| 20260905195539 | 79 | 286 | 0.9 | 5.2 | 0.00 | 0.01 | 0.01 | 53 | 1011.7 |
| 20260905195037 | 79 | 99 | 1.7 | 4.3 | 0.00 | 0.01 | 0.01 | 52 | 1011.6 |
| 20260905194557 | 79 | 86 | 1.7 | 4.3 | 0.00 | 0.01 | 0.01 | 53 | 1011.7 |
| 20260905194038 | 79 | 99 | 1.7 | 4.3 | 0.00 | 0.01 | 0.01 | 52 | 1011.7 |
| 20260905193536 | 79 | 56 | 1.7 | 7.0 | 0.00 | 0.01 | 0.01 | 54 | 1011.7 |
| 20260905193058 | 78 | 122 | 1.7 | 7.0 | 0.00 | 0.01 | 0.01 | 56 | 1011.7 |
| 20260905192536 | 78 | 78 | 2.6 | 7.0 | 0.00 | 0.01 | 0.01 | 53 | 1011.7 |
| 20260905192036 | 79 | 78 | 2.6 | 6.1 | 0.00 | 0.01 | 0.01 | 53 | 1011.7 |
| 20260905191612 | 79 | 244 | 0.9 | 5.2 | 0.00 | 0.01 | 0.01 | 54 | 1011.7 |
| 20260905191041 | 79 | 308 | 0.9 | 7.0 | 0.00 | 0.01 | 0.01 | 55 | 1011.8 |
| 20260905190538 | 77 | 46 | 2.6 | 7.0 | 0.00 | 0.01 | 0.01 | 55 | 1011.7 |
| 20260905190053 | 78 | 86 | 1.7 | 7.8 | 0.00 | 0.01 | 0.01 | 55 | 1011.8 |
| 20260905185537 | 78 | 61 | 1.7 | 7.8 | 0.00 | 0.01 | 0.01 | 54 | 1011.8 |
| 20260905185037 | 79 | 12 | 1.7 | 7.0 | 0.00 | 0.01 | 0.01 | 53 | 1011.9 |
| 20260905184614 | 79 | 64 | 2.6 | 7.8 | 0.00 | 0.01 | 0.01 | 52 | 1011.9 |
| 20260905184037 | 79 | 51 | 2.6 | 7.8 | 0.00 | 0.01 | 0.01 | 52 | 1012.0 |
| 20260905183540 | 79 | 35 | 1.7 | 7.0 | 0.00 | 0.01 | 0.01 | 53 | 1012.0 |
| 20260905183106 | 79 | 50 | 2.6 | 7.0 | 0.00 | 0.01 | 0.01 | 53 | 1012.1 |
| 20260905182538 | 79 | 130 | 1.7 | 9.6 | 0.00 | 0.01 | 0.01 | 54 | 1012.1 |
| 20260905182037 | 79 | 52 | 2.6 | 9.6 | 0.00 | 0.01 | 0.01 | 56 | 1012.2 |
| 20260905181555 | 79 | 70 | 3.5 | 9.6 | 0.00 | 0.01 | 0.01 | 52 | 1012.2 |
| 20260905181036 | 79 | 74 | 1.7 | 7.0 | 0.00 | 0.01 | 0.01 | 55 | 1012.3 |
| 20260905180533 | 78 | 116 | 0.9 | 7.8 | 0.00 | 0.01 | 0.01 | 56 | 1012.2 |
| 20260905180056 | 78 | 84 | 3.5 | 7.8 | 0.00 | 0.01 | 0.01 | 54 | 1012.3 |
| 20260905175535 | 78 | 79 | 2.6 | 7.8 | 0.00 | 0.01 | 0.01 | 58 | 1012.3 |
| 20260905175037 | 78 | 221 | 0.9 | 3.5 | 0.01 | 0.01 | 0.01 | 57 | 1012.3 |
| 20260905174607 | 78 | 92 | 0.9 | 4.3 | 0.01 | 0.01 | 0.01 | 54 | 1012.3 |
| 20260905174037 | 79 | 78 | 1.7 | 4.3 | 0.01 | 0.01 | 0.01 | 56 | 1012.3 |
| 20260905173535 | 79 | 87 | 1.7 | 7.0 | 0.01 | 0.01 | 0.01 | 59 | 1012.3 |
| 20260905173109 | 78 | 102 | 3.5 | 7.0 | 0.01 | 0.01 | 0.01 | 57 | 1012.3 |
| 20260905172538 | 79 | 63 | 1.7 | 3.5 | 0.01 | 0.01 | 0.01 | 58 | 1012.4 |
| 20260905172037 | 79 | 296 | 0.9 | 7.8 | 0.01 | 0.01 | 0.01 | 54 | 1012.4 |
| 20260905171558 | 79 | 269 | 0.9 | 7.8 | 0.01 | 0.01 | 0.01 | 55 | 1012.5 |
| 20260905171037 | 78 | 306 | 1.7 | 7.8 | 0.01 | 0.01 | 0.01 | 57 | 1012.7 |
| 20260905170537 | 77 | 55 | 1.7 | 6.1 | 0.01 | 0.01 | 0.01 | 57 | 1012.7 |
| 20260905170053 | 77 | 13 | 0.9 | 6.1 | 0.01 | 0.01 | 0.01 | 58 | 1012.7 |
| 20260905165537 | 78 | 128 | 2.6 | 6.1 | 0.01 | 0.01 | 0.01 | 56 | 1012.7 |
| 20260905165038 | 78 | 76 | 1.7 | 5.2 | 0.00 | 0.00 | 0.00 | 59 | 1012.7 |
| 20260905164558 | 77 | 80 | 0.9 | 3.5 | 0.00 | 0.00 | 0.00 | 59 | 1012.7 |
| 20260905164034 | 77 | 115 | 1.7 | 3.5 | 0.00 | 0.00 | 0.00 | 59 | 1012.7 |
| 20260905163536 | 78 | 319 | 0.9 | 3.5 | 0.00 | 0.00 | 0.00 | 58 | 1012.8 |
| 20260905163105 | 78 | 76 | 0.9 | 3.5 | 0.00 | 0.00 | 0.00 | 59 | 1012.9 |
| 20260905162535 | 78 | 270 | 0.9 | 6.1 | 0.00 | 0.00 | 0.00 | 61 | 1013.0 |
| 20260905162038 | 78 | 270 | 0.9 | 6.1 | 0.00 | 0.00 | 0.00 | 60 | 1013.2 |
| 20260905161558 | 77 | 78 | 1.7 | 5.2 | 0.00 | 0.00 | 0.00 | 59 | 1013.2 |
| 20260905161037 | 77 | 58 | 1.7 | 6.1 | 0.00 | 0.00 | 0.00 | 59 | 1013.3 |
| 20260905160537 | 77 | 99 | 2.6 | 6.1 | 0.00 | 0.00 | 0.00 | 56 | 1013.3 |
| 20260905160058 | 78 | 74 | 1.7 | 5.2 | 0.00 | 0.00 | 0.00 | 57 | 1013.3 |
| 20260905155539 | 77 | 80 | 1.7 | 5.2 | 0.00 | 0.00 | 0.00 | 59 | 1013.4 |
| 20260905155036 | 77 | 263 | 0.9 | 5.2 | 0.00 | 0.00 | 0.00 | 60 | 1013.3 |
| 20260905154604 | 77 | 69 | 2.6 | 5.2 | 0.00 | 0.00 | 0.00 | 61 | 1013.4 |
| 20260905154037 | 77 | 35 | 2.6 | 5.2 | 0.00 | 0.00 | 0.00 | 59 | 1013.5 |
| 20260905153533 | 77 | 71 | 1.7 | 5.2 | 0.00 | 0.00 | 0.00 | 59 | 1013.4 |
| 20260905153059 | 77 | 88 | 0.9 | 3.5 | 0.00 | 0.00 | 0.00 | 62 | 1013.4 |
| 20260905152537 | 77 | 55 | 0.9 | 3.5 | 0.00 | 0.00 | 0.00 | 61 | 1013.4 |
| 20260905152037 | 76 | 0 | 0.9 | 3.5 | 0.00 | 0.00 | 0.00 | 62 | 1013.4 |
| 20260905151602 | 76 | 51 | 1.7 | 6.1 | 0.00 | 0.00 | 0.00 | 62 | 1013.4 |
| 20260905151041 | 76 | 78 | 1.7 | 7.0 | 0.00 | 0.00 | 0.00 | 62 | 1013.5 |
| 20260905150538 | 76 | 49 | 2.6 | 7.0 | 0.00 | 0.00 | 0.00 | 63 | 1013.5 |
| 20260905150057 | 76 | 70 | 1.7 | 3.5 | 0.00 | 0.00 | 0.00 | 63 | 1013.5 |
| 20260905145535 | 75 | 117 | 1.7 | 5.2 | 0.00 | 0.00 | 0.00 | 64 | 1013.3 |
| 20260905145036 | 75 | 50 | 1.7 | 6.1 | 0.00 | 0.00 | 0.00 | 64 | 1013.3 |
| 20260905144555 | 75 | 92 | 2.6 | 7.0 | 0.00 | 0.00 | 0.00 | 63 | 1013.3 |
| 20260905144037 | 75 | 77 | 2.6 | 6.1 | 0.00 | 0.00 | 0.00 | 65 | 1013.4 |
| 20260905143537 | 75 | 144 | 1.7 | 4.3 | 0.00 | 0.00 | 0.00 | 67 | 1013.3 |
| 20260905143058 | 75 | 86 | 0.9 | 4.3 | 0.00 | 0.00 | 0.00 | 68 | 1013.2 |
| 20260905142536 | 74 | 213 | 0.9 | 4.3 | 0.00 | 0.00 | 0.00 | 68 | 1013.1 |
| 20260905142040 | 74 | 96 | 1.7 | 3.5 | 0.00 | 0.00 | 0.00 | 68 | 1013.0 |
| 20260905141610 | 74 | 242 | 1.7 | 2.6 | 0.00 | 0.00 | 0.00 | 69 | 1012.9 |
| 20260905141039 | 74 | 70 | 0.9 | 3.5 | 0.00 | 0.00 | 0.00 | 69 | 1012.8 |
| 20260905140539 | 74 | 91 | 0.9 | 3.5 | 0.00 | 0.00 | 0.00 | 71 | 1012.9 |
| 20260905135535 | 73 | 71 | 0.9 | 3.5 | 0.00 | 0.00 | 0.00 | 72 | 1012.9 |
| 20260905135038 | 73 | 76 | 1.7 | 4.3 | 0.00 | 0.00 | 0.00 | 71 | 1013.0 |
| 20260905134605 | 73 | 78 | 0.9 | 4.3 | 0.00 | 0.00 | 0.00 | 71 | 1013.0 |
| 20260905134035 | 73 | 67 | 0.9 | 4.3 | 0.00 | 0.00 | 0.00 | 71 | 1013.1 |
| 20260905133536 | 73 | 75 | 0.9 | 4.3 | 0.00 | 0.00 | 0.00 | 72 | 1013.2 |
| 20260905133101 | 73 | 44 | 1.7 | 4.3 | 0.00 | 0.00 | 0.00 | 72 | 1013.3 |
| 20260905132537 | 72 | 82 | 0.9 | 3.5 | 0.00 | 0.00 | 0.00 | 72 | 1013.3 |
| 20260905132036 | 72 | 34 | 0.0 | 3.5 | 0.00 | 0.00 | 0.00 | 73 | 1013.3 |
| 20260905131600 | 72 | 34 | 0.9 | 3.5 | 0.00 | 0.00 | 0.00 | 72 | 1013.3 |
| 20260905131037 | 72 | 34 | 1.7 | 3.5 | 0.00 | 0.00 | 0.00 | 73 | 1013.2 |
| 20260905130537 | 72 | 28 | 0.0 | 2.6 | 0.00 | 0.00 | 0.00 | 74 | 1013.1 |
| 20260905130058 | 72 | 0 | 0.0 | 2.6 | 0.00 | 0.00 | 0.00 | 73 | 1013.2 |
| 20260905125537 | 72 | 28 | 0.9 | 2.6 | 0.00 | 0.00 | 0.00 | 74 | 1013.2 |
| 20260905125038 | 72 | 28 | 0.9 | 2.6 | 0.00 | 0.00 | 0.00 | 73 | 1013.1 |
| 20260905124605 | 72 | 28 | 0.0 | 2.6 | 0.00 | 0.00 | 0.00 | 74 | 1012.9 |
| 20260905124038 | 72 | 28 | 0.0 | 2.6 | 0.00 | 0.00 | 0.00 | 74 | 1012.9 |
| 20260905123535 | 72 | 28 | 0.9 | 2.6 | 0.00 | 0.00 | 0.00 | 74 | 1012.9 |
| 20260905123101 | 72 | 28 | 0.0 | 2.6 | 0.00 | 0.00 | 0.00 | 75 | 1012.8 |
| 20260905122537 | 72 | 26 | 0.9 | 2.6 | 0.00 | 0.00 | 0.00 | 75 | 1012.7 |
| 20260905122037 | 72 | 26 | 0.9 | 2.6 | 0.00 | 0.00 | 0.00 | 76 | 1012.7 |
| 20260905121558 | 71 | 26 | 0.0 | 1.7 | 0.00 | 0.00 | 0.00 | 76 | 1012.9 |
| 20260905121038 | 71 | 26 | 0.0 | 1.7 | 0.00 | 0.00 | 0.00 | 76 | 1012.9 |
| 20260905120542 | 71 | 26 | 0.0 | 1.7 | 0.00 | 0.00 | 0.00 | 76 | 1012.9 |
| 20260905120059 | 71 | 26 | 0.9 | 1.7 | 0.00 | 0.00 | 0.00 | 76 | 1013.0 |
| 20260905115541 | 71 | 0 | 0.0 | 1.7 | 0.00 | 0.00 | 0.00 | 76 | 1013.0 |
| 20260905115039 | 71 | 0 | 0.0 | 2.6 | 0.00 | 0.00 | 0.00 | 76 | 1012.9 |
| 20260905114625 | 71 | 0 | 0.9 | 2.6 | 0.00 | 0.00 | 0.00 | 76 | 1012.8 |
| 20260905114038 | 71 | 26 | 0.9 | 2.6 | 0.00 | 0.00 | 0.00 | 76 | 1012.5 |
| 20260905113537 | 71 | 22 | 0.0 | 1.7 | 0.00 | 0.00 | 0.00 | 77 | 1012.4 |
| 20260905113102 | 71 | 22 | 0.0 | 2.6 | 0.00 | 0.00 | 0.00 | 76 | 1012.3 |
| 20260905112538 | 71 | 22 | 0.9 | 2.6 | 0.00 | 0.00 | 0.00 | 76 | 1012.4 |
| 20260905112038 | 71 | 22 | 0.9 | 2.6 | 0.00 | 0.00 | 0.00 | 76 | 1012.4 |
| 20260905111558 | 71 | 22 | 0.9 | 2.6 | 0.00 | 0.00 | 0.00 | 76 | 1012.3 |
| 20260905111038 | 71 | 22 | 0.9 | 1.7 | 0.00 | 0.00 | 0.00 | 76 | 1012.3 |
| 20260905110539 | 71 | 22 | 0.9 | 1.7 | 0.00 | 0.00 | 0.00 | 76 | 1012.3 |
| 20260905110056 | 71 | 0 | 0.0 | 1.7 | 0.00 | 0.00 | 0.00 | 76 | 1012.4 |
| 20260905105538 | 71 | 0 | 0.0 | 1.7 | 0.00 | 0.00 | 0.00 | 76 | 1012.3 |
| 20260905105038 | 71 | 22 | 0.0 | 1.7 | 0.00 | 0.00 | 0.00 | 76 | 1012.3 |
| 20260905104553 | 71 | 22 | 0.9 | 1.7 | 0.00 | 0.00 | 0.00 | 76 | 1012.0 |
| 20260905104037 | 71 | 22 | 0.9 | 1.7 | 0.00 | 0.00 | 0.00 | 76 | 1012.0 |
| 20260905103538 | 71 | 22 | 0.0 | 1.7 | 0.00 | 0.00 | 0.00 | 76 | 1012.0 |
| 20260905103055 | 71 | 22 | 0.0 | 1.7 | 0.00 | 0.00 | 0.00 | 76 | 1011.9 |
| 20260905102537 | 71 | 22 | 0.9 | 1.7 | 0.00 | 0.00 | 0.00 | 76 | 1011.9 |
| 20260905102038 | 71 | 22 | 0.0 | 2.6 | 0.00 | 0.00 | 0.00 | 76 | 1011.9 |
| 20260905101552 | 71 | 0 | 0.9 | 2.6 | 0.00 | 0.00 | 0.00 | 76 | 1011.8 |
| 20260905101040 | 71 | 22 | 0.0 | 1.7 | 0.00 | 0.00 | 0.00 | 76 | 1011.8 |
| 20260905100538 | 71 | 22 | 0.9 | 1.7 | 0.00 | 0.00 | 0.00 | 76 | 1011.6 |
| 20260905100113 | 71 | 22 | 0.9 | 2.6 | 0.00 | 0.00 | 0.00 | 76 | 1011.6 |
| 20260905095537 | 71 | 22 | 0.9 | 2.6 | 0.00 | 0.00 | 0.00 | 77 | 1011.7 |
| 20260905095041 | 71 | 22 | 0.9 | 1.7 | 0.00 | 0.00 | 0.00 | 77 | 1011.6 |
| 20260905094607 | 71 | 22 | 0.0 | 1.7 | 0.00 | 0.00 | 0.00 | 77 | 1011.7 |
| 20260905094037 | 71 | 0 | 0.0 | 1.7 | 0.00 | 0.00 | 0.00 | 77 | 1011.6 |
| 20260905093537 | 71 | 22 | 0.0 | 1.7 | 0.00 | 0.00 | 0.00 | 77 | 1011.6 |
| 20260905093058 | 71 | 22 | 0.0 | 1.7 | 0.00 | 0.00 | 0.00 | 78 | 1011.6 |
| 20260905092539 | 71 | 15 | 0.9 | 1.7 | 0.00 | 0.00 | 0.00 | 78 | 1011.5 |
| 20260905092037 | 71 | 15 | 0.0 | 1.7 | 0.00 | 0.00 | 0.00 | 78 | 1011.4 |
| 20260905091600 | 71 | 0 | 0.0 | 1.7 | 0.00 | 0.00 | 0.00 | 78 | 1011.4 |
| 20260905091036 | 72 | 0 | 0.0 | 1.7 | 0.00 | 0.00 | 0.00 | 79 | 1011.4 |
| 20260905090537 | 72 | 0 | 0.0 | 0.9 | 0.00 | 0.00 | 0.00 | 78 | 1011.4 |
| 20260905090058 | 72 | 0 | 0.0 | 1.7 | 0.00 | 0.00 | 0.00 | 78 | 1011.5 |
| 20260905085537 | 72 | 0 | 0.0 | 1.7 | 0.00 | 0.00 | 0.00 | 77 | 1011.5 |
| 20260905085034 | 72 | 0 | 0.0 | 1.7 | 0.00 | 0.00 | 0.00 | 78 | 1011.4 |
| 20260905084556 | 72 | 0 | 0.0 | 1.7 | 0.00 | 0.00 | 0.00 | 78 | 1011.4 |
| 20260905084037 | 72 | 0 | 0.0 | 1.7 | 0.00 | 0.00 | 0.00 | 77 | 1011.2 |
| 20260905083540 | 73 | 15 | 0.0 | 3.5 | 0.00 | 0.00 | 0.00 | 76 | 1011.3 |
| 20260905083057 | 73 | 15 | 0.9 | 3.5 | 0.00 | 0.00 | 0.00 | 75 | 1011.4 |
| 20260905082538 | 73 | 9 | 0.9 | 2.6 | 0.00 | 0.00 | 0.00 | 75 | 1011.4 |
| 20260905082037 | 73 | 5 | 0.9 | 2.6 | 0.00 | 0.00 | 0.00 | 76 | 1011.4 |
| 20260905081554 | 73 | 360 | 0.9 | 1.7 | 0.00 | 0.00 | 0.00 | 76 | 1011.5 |
| 20260905081037 | 73 | 352 | 0.0 | 1.7 | 0.00 | 0.00 | 0.00 | 77 | 1011.6 |
| 20260905080537 | 73 | 352 | 0.0 | 1.7 | 0.00 | 0.00 | 0.00 | 77 | 1011.6 |
| 20260905080048 | 73 | 0 | 0.0 | 1.7 | 0.00 | 0.00 | 0.00 | 77 | 1011.7 |
| 20260905075537 | 73 | 352 | 0.0 | 3.5 | 0.00 | 0.01 | 0.00 | 77 | 1011.8 |
| 20260905075034 | 73 | 352 | 0.0 | 3.5 | 0.00 | 0.01 | 0.00 | 77 | 1011.6 |
| 20260905074603 | 73 | 352 | 0.9 | 2.6 | 0.00 | 0.01 | 0.00 | 78 | 1011.7 |
| 20260905074036 | 73 | 344 | 0.9 | 2.6 | 0.00 | 0.01 | 0.00 | 78 | 1011.7 |
| 20260905073537 | 73 | 0 | 0.0 | 4.3 | 0.00 | 0.01 | 0.00 | 80 | 1011.7 |
| 20260905073106 | 73 | 321 | 0.0 | 4.3 | 0.00 | 0.01 | 0.00 | 81 | 1011.7 |
| 20260905072537 | 73 | 0 | 0.0 | 1.7 | 0.00 | 0.01 | 0.00 | 81 | 1011.7 |
| 20260905072037 | 73 | 291 | 0.0 | 1.7 | 0.00 | 0.01 | 0.00 | 81 | 1011.7 |
| 20260905071553 | 73 | 0 | 0.0 | 1.7 | 0.00 | 0.01 | 0.00 | 83 | 1011.7 |
| 20260905071039 | 73 | 0 | 0.0 | 1.7 | 0.00 | 0.01 | 0.00 | 83 | 1011.7 |
| 20260905070537 | 73 | 0 | 0.0 | 1.7 | 0.00 | 0.01 | 0.00 | 83 | 1011.7 |
| 20260905070051 | 73 | 292 | 0.0 | 1.7 | 0.00 | 0.01 | 0.00 | 83 | 1011.8 |
| 20260905065536 | 73 | 0 | 0.0 | 1.7 | 0.00 | 0.01 | 0.00 | 83 | 1011.7 |
| 20260905065039 | 73 | 292 | 0.0 | 1.7 | 0.00 | 0.01 | 0.00 | 83 | 1011.8 |
| 20260905064611 | 73 | 292 | 0.0 | 1.7 | 0.00 | 0.01 | 0.00 | 83 | 1011.8 |
| 20260905064036 | 73 | 0 | 0.0 | 0.0 | 0.00 | 0.01 | 0.00 | 83 | 1011.7 |
| 20260905063538 | 73 | 0 | 0.0 | 1.7 | 0.00 | 0.01 | 0.00 | 83 | 1011.6 |
| 20260905063100 | 73 | 0 | 0.0 | 1.7 | 0.00 | 0.01 | 0.00 | 83 | 1011.8 |
| 20260905062536 | 73 | 0 | 0.0 | 1.7 | 0.00 | 0.01 | 0.00 | 83 | 1011.8 |
| 20260905062038 | 74 | 0 | 0.0 | 0.0 | 0.00 | 0.01 | 0.00 | 83 | 1011.8 |
| 20260905061614 | 74 | 0 | 0.0 | 1.7 | 0.00 | 0.01 | 0.00 | 83 | 1011.8 |
| 20260905061037 | 74 | 0 | 0.0 | 1.7 | 0.00 | 0.01 | 0.00 | 83 | 1011.8 |
| 20260905060535 | 74 | 0 | 0.0 | 1.7 | 0.00 | 0.01 | 0.00 | 83 | 1011.9 |
| 20260905060051 | 74 | 0 | 0.0 | 1.7 | 0.00 | 0.01 | 0.00 | 83 | 1011.8 |
| 20260905055536 | 74 | 0 | 0.0 | 1.7 | 0.00 | 0.01 | 0.00 | 83 | 1011.9 |
| 20260905055040 | 74 | 0 | 0.0 | 1.7 | 0.00 | 0.01 | 0.00 | 83 | 1011.9 |
| 20260905054604 | 74 | 81 | 0.0 | 1.7 | 0.00 | 0.01 | 0.00 | 83 | 1011.9 |
| 20260905054033 | 74 | 0 | 0.0 | 1.7 | 0.00 | 0.01 | 0.00 | 83 | 1012.0 |
| 20260905053534 | 75 | 0 | 0.0 | 1.7 | 0.00 | 0.01 | 0.00 | 83 | 1012.1 |
| 20260905053058 | 75 | 78 | 0.0 | 1.7 | 0.00 | 0.01 | 0.00 | 83 | 1012.2 |
| 20260905052539 | 75 | 0 | 0.0 | 1.7 | 0.00 | 0.01 | 0.00 | 82 | 1012.2 |
| 20260905052037 | 75 | 0 | 0.0 | 1.7 | 0.00 | 0.01 | 0.00 | 82 | 1012.3 |
| 20260905051609 | 75 | 0 | 0.0 | 1.7 | 0.00 | 0.01 | 0.00 | 82 | 1012.4 |
| 20260905051038 | 75 | 0 | 0.0 | 1.7 | 0.00 | 0.01 | 0.00 | 82 | 1012.4 |
| 20260905050537 | 75 | 0 | 0.0 | 1.7 | 0.00 | 0.01 | 0.00 | 82 | 1012.5 |
| 20260905045537 | 75 | 0 | 0.0 | 1.7 | 0.00 | 0.01 | 0.00 | 81 | 1012.5 |
| 20260905045037 | 75 | 0 | 0.0 | 1.7 | 0.00 | 0.01 | 0.00 | 81 | 1012.5 |